Regional Weather Roundup
Issued by NWS Charleston, WV

Home | Current Version | Previous Version | Text Only | Print | Product List | Glossary Off
Versions: 1 2 3 4 5 6 7 8 9 10 11 12 13 14 15 16 17 18 19 20 21 22 23 24 25 26 27 28 29 30 31 32 33 34 35 36 37 38 39 40 41 42 43 44 45 46 47 48 49 50

000
ASUS41 KRLX 300110
RWRRLX
West Virginia Regional Weather Roundup
National Weather Service Charleston WV
900 PM EDT MON JUN 29 2015

Note: "fair" indicates few or no clouds below 12,000 feet with no
significant weather and/or obstructions to visibility.

WVZ003-300200-
Northern Panhandle of West Virginia

CITY           SKY/WX    TMP DP  RH WIND       PRES   REMARKS
WHEELING       LGT RAIN  63  59  87 E12       29.87F FOG
$$

WVZ009-300200-
Northwest West Virginia

CITY           SKY/WX    TMP DP  RH WIND       PRES   REMARKS
PARKERSBURG    CLOUDY    66  63  90 S6        29.86R
$$

WVZ006-300200-
Western West Virginia

CITY           SKY/WX    TMP DP  RH WIND       PRES   REMARKS
HUNTINGTON     CLOUDY    67  67 100 SE3       29.84S
$$

WVZ015-300200-
West Central West Virginia

CITY           SKY/WX    TMP DP  RH WIND       PRES   REMARKS
CHARLESTON     LGT RAIN  69  64  84 N8G21     29.86R
$$

WVZ022-031-300200-
North Central West Virginia

CITY           SKY/WX    TMP DP  RH WIND       PRES   REMARKS
CLARKSBURG     CLOUDY    69  59  70 SE5       29.86F
MORGANTOWN     CLOUDY    71  54  54 CALM      29.87F
$$

WVZ025-035-042-045-300200-
Southern West Virginia

CITY           SKY/WX    TMP DP  RH WIND       PRES   REMARKS
BECKLEY        PTCLDY    69  56  62 SE6       29.96F
LOGAN          CLOUDY    73  61  64 S5        29.87R
BLUEFIELD      MOCLDY    71  55  56 S9        30.00F
LEWISBURG      PTCLDY    70  56  61 S3        29.98S
$$

WVZ047-300200-
Northern Mountains of West Virginia

CITY           SKY/WX    TMP DP  RH WIND       PRES   REMARKS
ELKINS         MOCLDY    70  55  59 S8        29.93S
$$

WVZ052-300200-
Eastern Panhandle of West Virginia

CITY           SKY/WX    TMP DP  RH WIND       PRES   REMARKS
MARTINSBURG    PTCLDY    71  57  61 SE5       29.93S
PETERSBURG     MOCLDY    68  59  73 CALM      29.92S
$$


USA.gov is the U.S. government's official web portal to all federal, state and local government web resources and services.